NOAA 16 DEB, 41064

Orbit data source: Space-Track

NOAA 16 DEB, 41064 is space debris in SSO originally from a launch on Thu, 21 Sep 2000 UTC launched from the Air Force Western Test Range (AFWTR). Debris objects in space refer to the collection of defunct objects orbiting the Earth. Examples of debris include non-operational satellites, rocket bodies, and fragments generated from explosions, collisions, or faulty payload assembly.

Loading next visibility...
Identifier
41064, 2000-055X
Orbit
SSO
Country
Flag of USUS
Related business
Manufacturer
Unknown
Mission
Spacecraft
Bus & Motor
Unknown
Mass
Unknown
Launch date (UTC)
2000-09-21 (25 years ago)
Launch vehicle
Unknown
Launch site
Air Force Western Test Range (AFWTR)
Object type
Payload
Rocket body
Debris
Shape & HBR
Unknown shape, 0.1 m
Radar Cross Section
Small (<0.1 m²)

Expand to show TLE details & history
Last TLE update: 7 hours ago

TLE from 7 hours ago
0 NOAA 16 DEB
1 41064U 00055X   25293.59745584  .00015519  00000-0  47763-2 0  9993
2 41064  98.8462  56.7097 0014846 217.0025 143.0141 14.41507831513410
Epoch: 2025-10-20T14:20Z
TLE epoch observation values (Epoch: 2025-10-20T14:20:20.184Z)
Latitude
0.00006°
Longitude
172.32811°
Altitude
764.925 km
Speed
7.467 km/s
True Right ascension
03h 46m 50s
True Declination
0° 00' 00"
Sunlit
Object was in full shadow at epoch
Visualization orbit readout
Latitude
Unknown
Longitude
Unknown
Altitude
Unknown
Speed
Unknown
Apparent Right ascension
Unknown
Apparent Declination
Unknown
Sunlit
N/A
Visualization observer readout
Local Sidereal Time
16:14:20
Azimuth
Unknown
Elevation
Unknown
Doppler factor
Unknown
Orbital elements
Apogee altitude
761.241 km
Perigee altitude
740.074 km
Semi-major axis
7,128.794 km
Eccentricity
0.00148
Inclination
98.8462°
RAAN
56.7097°
Arg. of periapsis
217.0025°
True anomaly
143.1163°
Mean anomaly
143.0141°
Eccentric anomaly
143.06521°
Mean motion
3.60594 °/min
Orbital period
99.84 mins
BSTAR
0.0047763
Loading maneuver chart data...
Computing Atmospheric mass density...
Loading historical data...
Loading historical data...
Loading historical data...
Loading historical data...
Loading historical data...
Loading historical data...
Loading historical data...

Documentation

Showing up to 5 results
|